Huron, CA

8:40 PM PST on February 20, 2017 (GMT -0800)
Lemoore Naval Air Station

Weather History for KNLC - November, 2013

Change the Weather History Date:

Thursday, November 14, 2013

  Actual Average Record
Temperature  
Mean Temperature 60 °F -  
Max Temperature 78 °F 63 °F 78 °F (2013)
Min Temperature 42 °F 41 °F 30 °F (2000)
Degree Days  
Heating Degree Days 5    
Growing Degree Days 10 (Base 50)    
Moisture  
Dew Point 38 °F    
Average Humidity 47    
Maximum Humidity 64    
Minimum Humidity 29    
Precipitation  
Precipitation 0.00 in - - ()
Sea Level Pressure  
Sea Level Pressure 30.00 in    
Wind  
Wind Speed 3 mph (NW)    
Max Wind Speed 10 mph    
Max Gust Speed -    
Visibility 5 miles    
Events      
Averages and records for this station are not official NWS values.
T = Trace of Precipitation, MM = Missing Value Source: NWS Daily Summary

Daily Weather History Graph

Daily Weather History Graph

Search for Another Location

Airport or City:

Trip Planner

Search our weather history database for the weather conditions in past years. The results will help you decide how hot, cold, wet, or windy it might be!

Date:

Astronomy

Nov. 14, 2013 Rise Set
Actual Time 6:36 AM PST 4:51 PM PST
Civil Twilight 6:08 AM PST 5:19 PM PST
Nautical Twilight 5:37 AM PST 5:50 PM PST
Astronomical Twilight 5:07 AM PST 6:20 PM PST
Moon 3:12 PM PST (11/14) 3:41 AM PST (11/14)
Length of Visible Light 11h 10m
Length of Day
10h 15m
Waxing Gibbous, 92% of the Moon is Illuminated
Nov 14
Waxing Gibbous
Nov 17
Full
Nov 25
Last Quarter
Dec 2
New
Dec 9
First Quarter

Hourly Weather History & Observations

Time (PST) Temp. Windchill Dew Point Humidity Pressure Visibility Wind Dir Wind Speed Gust Speed Precip Events Conditions
12:03 AM 50.0 °F - 34.0 °F 54% 30.10 in 5.0 mi Calm Calm - N/A   Haze
12:56 AM 46.0 °F 44.8 °F 33.1 °F 61% 30.11 in 5.0 mi South 3.5 mph - N/A   Haze
1:56 AM 48.0 °F - 32.0 °F 54% 30.10 in 8.0 mi WNW 3.5 mph - N/A   Overcast
2:56 AM 46.0 °F - 30.0 °F 54% 30.10 in 7.0 mi Calm Calm - N/A   Overcast
3:56 AM 45.0 °F - 30.9 °F 58% 30.09 in 5.0 mi Calm Calm - N/A   Haze
4:56 AM 42.1 °F - 27.0 °F 55% 30.07 in 7.0 mi Calm Calm - N/A   Overcast
5:18 AM 43.0 °F 40.3 °F 28.0 °F 56% 30.07 in 7.0 mi SW 4.6 mph - N/A   Overcast
5:56 AM 43.0 °F 38.8 °F 28.0 °F 56% 30.07 in 7.0 mi WSW 6.9 mph - N/A   Overcast
6:56 AM 43.0 °F 40.3 °F 28.9 °F 58% 30.08 in 5.0 mi ESE 4.6 mph - N/A   Haze
7:06 AM 44.1 °F 41.5 °F 28.9 °F 55% 30.08 in 5.0 mi ESE 4.6 mph - N/A   Haze
7:56 AM 48.9 °F - 37.0 °F 64% 30.09 in 3.0 mi ESE 4.6 mph - N/A   Haze
8:43 AM 55.9 °F - 41.0 °F 57% 30.07 in 2.5 mi ESE 4.6 mph - N/A   Haze
8:56 AM 57.9 °F - 42.1 °F 56% 30.06 in 2.5 mi SE 5.8 mph - N/A   Haze
9:52 AM 64.4 °F - 42.8 °F 45% 30.06 in 3.0 mi Calm Calm - N/A   Haze
9:56 AM 66.9 °F - 42.1 °F 40% 30.06 in 2.5 mi Calm Calm - N/A   Haze
10:08 AM 66.2 °F - 42.8 °F 43% 30.06 in 2.5 mi Variable 3.5 mph - N/A   Haze
10:14 AM 68.0 °F - 43.0 °F 40% 30.06 in 2.5 mi Calm Calm - N/A   Haze
10:41 AM 70.0 °F - 43.0 °F 38% 30.05 in 3.0 mi Calm Calm - N/A   Haze
10:56 AM 71.1 °F - 44.1 °F 38% 30.04 in 3.0 mi Variable 4.6 mph - N/A   Haze
11:56 AM 73.9 °F - 44.1 °F 34% 30.00 in 3.0 mi Variable 4.6 mph - N/A   Haze
12:56 PM 75.9 °F - 43.0 °F 31% 29.96 in 4.0 mi North 6.9 mph - N/A   Haze
1:56 PM 78.1 °F - 44.1 °F 30% 29.94 in 4.0 mi NE 5.8 mph - N/A   Haze
2:56 PM 78.1 °F - 43.0 °F 29% 29.91 in 4.0 mi NNW 10.4 mph - N/A   Haze
3:56 PM 75.9 °F - 44.1 °F 32% 29.90 in 5.0 mi NNW 9.2 mph - N/A   Haze
4:56 PM 71.1 °F - 43.0 °F 36% 29.88 in 5.0 mi North 5.8 mph - N/A   Haze
5:56 PM 66.0 °F - 42.1 °F 42% 29.89 in 6.0 mi North 8.1 mph - N/A   Haze
6:56 PM 64.9 °F - 42.1 °F 43% 29.88 in 5.0 mi Calm Calm - N/A   Haze
7:56 PM 64.9 °F - 41.0 °F 42% 29.87 in 6.0 mi WSW 5.8 mph - N/A   Haze
8:56 PM 61.0 °F - 39.0 °F 44% 29.86 in 7.0 mi West 5.8 mph - N/A   Mostly Cloudy
9:56 PM 60.1 °F - 37.0 °F 42% 29.84 in 8.0 mi West 6.9 mph - N/A   Partly Cloudy
10:56 PM 54.0 °F - 34.0 °F 47% 29.84 in 7.0 mi WNW 10.4 mph - N/A   Clear
11:56 PM 54.0 °F - 39.0 °F 57% 29.83 in 9.0 mi NW 6.9 mph - N/A   Clear